Change the Weather History Date:

Sunday, November 18, 2012

  Actual Average Record
Temperature  
Mean Temperature 84 °F -  
Max Temperature 91 °F 96 °F - ()
Min Temperature 76 °F 73 °F - ()
Cooling Degree Days 18    
Growing Degree Days 34 (Base 50)    
Moisture  
Dew Point 73 °F    
Average Humidity 70    
Maximum Humidity 89    
Minimum Humidity 49    
Precipitation  
Precipitation 0.35 in - - ()
Sea Level Pressure  
Sea Level Pressure 29.85 in    
Wind  
Wind Speed 4 mph ()    
Max Wind Speed 9 mph    
Max Gust Speed -    
Visibility 7.9 miles    
Events Rain    
T = Trace of Precipitation, MM = Missing Value Source: Averaged Metar Reports

Daily Weather History Graph

Daily Weather History Graph

Search for Another Location

Airport or City:

Trip Planner

Search our weather history database for the weather conditions in past years. The results will help you decide how hot, cold, wet, or windy it might be!

Date:

Astronomy

Nov. 18, 2012 Rise Set
Actual Time 6:02 AM EAT 6:10 PM EAT
Civil Twilight 5:40 AM EAT 6:32 PM EAT
Nautical Twilight 5:15 AM EAT 6:58 PM EAT
Astronomical Twilight 4:49 AM EAT 7:23 PM EAT
Moon 10:23 AM EAT (11/18) 10:50 PM EAT (11/18)
Length of Visible Light 12h 52m
Length of Day
12h 08m
Waxing Crescent, 26% of the Moon is Illuminated
Nov 18
Waxing Crescent
Nov 20
First Quarter
Nov 28
Full
Dec 6
Last Quarter
Dec 13
New

Hourly Weather History & Observations

Time (EAT) Temp. Heat Index Dew Point Humidity Pressure Visibility Wind Dir Wind Speed Gust Speed Precip Events Conditions
1:00 AM 82.4 °F 88.2 °F 73.4 °F 74% 29.83 in - SSE 9.2 mph - N/A   Clear
2:00 AM 80.6 °F 85.4 °F 73.4 °F 79% 29.83 in 6.2 mi South 6.9 mph - N/A   Partly Cloudy
3:00 AM 79 °F - 73 °F 78% 29.83 in 19 mi South 6.9 mph - -   Scattered Clouds
4:00 AM 78.8 °F - 73.4 °F 83% 29.83 in 6.2 mi South 4.6 mph - N/A   Partly Cloudy
5:00 AM 78.8 °F - 73.4 °F 83% 29.86 in 6.2 mi South 4.6 mph - N/A   Mostly Cloudy
7:00 AM 78.8 °F - 75.2 °F 89% 29.89 in 6.2 mi SSE 2.3 mph - N/A   Scattered Clouds
8:00 AM 82.4 °F 89.5 °F 75.2 °F 79% 29.92 in 6.2 mi South 4.6 mph - N/A   Mostly Cloudy
9:00 AM 83 °F - 74 °F 67% 29.91 in 25 mi SE 6.9 mph - -   Mostly Cloudy
10:00 AM 84.2 °F 90.9 °F 73.4 °F 70% 29.92 in 6.2 mi Calm Calm - N/A   Mostly Cloudy
11:00 AM 82.4 °F 89.5 °F 75.2 °F 79% 29.92 in 6.2 mi Calm Calm - N/A Rain Light Rain
1:00 PM 87.8 °F 93.8 °F 71.6 °F 58% 29.86 in 6.2 mi ESE 3.5 mph - N/A   Mostly Cloudy
2:00 PM 91.4 °F 98.4 °F 71.6 °F 52% 29.83 in 6.2 mi North 5.8 mph - N/A   Mostly Cloudy
3:00 PM 89 °F - 74 °F 52% 29.80 in 25 mi SW 4.6 mph - -   Partly Cloudy
4:00 PM 91.4 °F 96.8 °F 69.8 °F 49% 29.80 in 6.2 mi West 3.5 mph - N/A   Scattered Clouds
5:00 PM - - - N/A% 29.80 in 6.2 mi Calm Calm - N/A   Scattered Clouds
7:00 PM 86.0 °F 93.4 °F 73.4 °F 66% 29.80 in 6.2 mi Calm Calm - N/A   Scattered Clouds
8:00 PM 84.2 °F 92.3 °F 75.2 °F 74% 29.80 in 6.2 mi Calm Calm - N/A   Scattered Clouds
9:00 PM 85 °F - 74 °F 61% 29.82 in 19 mi Calm Calm - -   Scattered Clouds
10:00 PM 84.2 °F 89.6 °F 71.6 °F 66% 29.83 in - East 3.5 mph - N/A   Clear
11:00 PM 84.2 °F 89.6 °F 71.6 °F 66% 29.83 in - Calm Calm - N/A   Clear